Wetbulb
53.95 53.82 54.02 54.20 54.23 54.32 54.44 54.71 54.92 55.28 55.67 56.20 56.60 56.82 56.84 56.81 56.61 51.81 46.41 52.80 54.31 60.28 60.39 52.76 49.43 48.42 48.34 46.98 48.54 49.13 40.25 39.57 45.74 47.90 49.93 53.74 51.56 55.03 56.99 53.81 55.22 56.90 61.38 63.24 66.03
53.81 53.81 54.09 54.25 54.28 54.10 54.26 54.51 54.74 54.97 55.46 55.87 56.27 56.55 56.46 56.86 52.10 49.22 54.72 61.59 61.34 60.96 51.07 47.43 46.73 48.60 43.24 44.73 44.71 42.86 40.25 42.86 48.28 50.70 50.30 52.29 52.73 54.40 54.43 54.04 54.12 54.86 63.00 65.50 65.53
53.60 53.77 53.87 53.95 53.96 54.06 54.16 54.39 54.59 54.93 55.18 55.45 55.79 56.05 56.63 56.51 48.81 50.47 61.20 62.53 62.20 60.62 52.90 51.06 49.00 46.39 40.57 43.01 43.10 41.67 41.36 48.35 49.83 51.35 52.11 51.99 52.27 54.42 51.99 51.09 53.34 53.18 55.72 63.42 64.74
53.82 53.85 53.89 53.87 53.68 53.72 53.99 54.16 54.57 54.72 54.94 54.91 55.34 55.79 57.03 52.77 38.44 52.91 62.93 62.90 62.97 57.54 52.76 50.15 45.75 38.84 37.63 38.62 43.01 39.17 43.98 45.64 48.04 50.59 50.51 49.74 52.43 50.96 51.94 52.45 55.70 56.77 57.06 60.20 62.80
53.80 54.15 53.94 53.87 53.79 53.68 53.88 54.21 54.37 54.43 54.41 54.76 55.26 55.87 52.43 46.67 49.10 55.46 63.89 63.28 59.66 55.08 51.23 48.53 42.14 39.40 35.19 38.83 41.27 39.88 42.78 44.48 46.12 46.96 49.69 51.44 50.18 50.21 50.98 53.95 56.17 57.30 57.52 55.52 61.61
53.57 53.51 53.55 53.48 53.21 53.77 53.77 53.76 53.80 53.86 54.28 54.63 55.32 56.29 50.07 41.17 54.27 53.36 60.20 55.68 54.52 50.13 46.86 46.47 42.64 43.98 40.10 38.81 38.00 40.70 41.89 42.23 43.54 44.38 45.32 46.36 48.39 49.84 51.28 54.26 54.60 55.88 56.24 55.28 56.61
53.40 53.66 53.05 53.23 52.92 53.03 53.87 53.92 53.82 53.51 53.97 54.80 56.09 54.45 47.38 43.41 53.04 50.77 53.49 48.56 47.63 49.26 47.15 48.21 47.82 44.93 42.00 40.08 42.28 42.39 38.44 40.70 42.00 42.77 43.86 46.90 44.42 45.92 50.16 52.41 53.63 54.78 55.43 55.51 55.82
53.02 53.06 53.04 53.00 52.92 53.16 53.35 53.70 53.56 53.64 54.38 54.89 56.42 51.35 42.34 53.34 52.60 51.44 47.24 47.43 49.20 49.10 48.62 49.08 48.98 44.34 41.02 42.14 41.75 37.82 36.65 31.21 37.84 41.71 44.74 44.67 39.44 46.19 49.07 48.82 49.51 51.16 53.87 55.06 56.47
53.37 53.24 53.04 52.67 52.79 53.02 52.96 52.90 53.60 54.53 55.23 55.21 50.04 46.69 44.73 56.29 49.19 50.08 48.97 48.24 48.89 48.92 48.48 51.07 46.88 42.75 41.44 36.06 32.16 33.00 28.60 31.48 35.19 40.52 41.22 41.39 39.71 45.94 48.07 47.90 48.03 49.56 50.62 52.35 53.89
53.24 53.04 53.16 52.67 52.52 52.73 52.22 52.85 52.98 53.42 53.57 54.38 52.55 44.53 47.84 47.82 47.97 50.36 50.19 50.17 47.15 46.42 45.74 45.29 40.76 36.82 35.16 32.76 26.35 29.82 30.57 33.76 33.43 37.98 38.78 37.68 37.76 41.47 44.31 44.87 45.55 47.53 49.24 50.78 52.38
53.31 52.81 52.57 52.92 52.77 52.74 50.26 46.66 42.38 43.24 46.55 45.47 48.06 47.68 49.88 50.24 50.10 48.59 51.10 48.43 46.68 42.81 36.52 40.06 34.17 31.54 35.58 37.62 38.92 37.79 35.90 34.64 37.70 41.28 37.88 37.51 38.25 40.34 42.26 42.88 42.62 43.86 46.07 48.34 50.45
52.90 52.46 52.38 52.61 52.86 52.47 47.88 44.33 45.82 45.15 39.08 47.26 47.98 47.80 50.13 49.77 44.21 47.08 51.04 43.31 41.91 35.84 39.03 35.51 31.51 38.00 40.73 39.61 38.02 36.83 34.58 33.60 37.89 41.00 39.31 37.70 38.32 41.50 41.58 41.57 42.47 43.38 44.72 46.07 48.61
52.03 51.76 52.09 52.16 51.70 49.31 46.15 49.33 51.33 47.79 38.28 44.08 48.00 47.50 47.63 47.46 43.83 44.38 46.96 43.75 39.71 36.70 36.23 32.34 36.60 41.10 39.39 36.90 37.19 36.23 33.75 35.40 35.43 39.08 39.51 37.52 35.69 38.45 41.76 42.15 43.56 44.44 45.37 46.47 47.22
51.41 51.33 51.39 51.19 47.86 45.74 46.19 50.80 49.09 47.68 33.36 40.78 42.99 45.39 46.19 45.39 42.11 48.07 48.52 44.01 39.88 36.31 36.59 35.15 39.24 38.54 36.64 36.51 38.75 32.66 40.25 39.26 38.12 34.72 27.58 36.98 27.20 35.51 38.50 39.31 40.85 42.35 42.65 44.00 46.54
51.00 51.14 51.18 50.81 44.09 42.51 49.23 50.21 48.51 46.34 25.50 44.28 43.15 48.44 45.93 41.79 43.77 45.10 48.64 43.57 38.16 38.00 36.74 34.45 36.45 35.82 34.49 38.10 40.81 35.76 41.42 38.55 37.56 34.16 30.45 33.46 27.23 33.82 36.50 36.85 39.40 41.45 42.73 43.92 45.37
50.75 50.82 50.52 47.86 45.68 46.41 49.62 48.27 47.95 35.98 27.98 38.95 43.00 41.91 40.46 42.25 43.03 45.22 44.24 45.10 43.44 38.44 37.41 37.12 40.87 38.72 39.42 41.91 41.69 42.01 37.83 35.86 34.31 31.17 25.41 31.62 29.16 31.35 33.32 36.13 39.29 41.71 43.14 45.04 45.09
50.37 50.15 49.28 49.52 43.79 47.77 47.63 45.88 35.39 31.29 43.91 38.14 38.28 41.39 39.63 39.10 41.42 43.02 41.78 36.97 33.41 29.20 29.48 34.61 35.25 40.01 42.87 36.74 38.88 36.14 29.94 22.59 20.57 20.22 22.88 32.63 29.80 32.66 36.51 39.32 41.15 41.87 43.45 44.57 46.71
49.75 49.40 49.04 49.87 46.95 47.10 44.60 38.06 29.67 38.51 37.13 42.31 40.48 40.33 37.36 40.06 39.63 40.27 38.13 34.13 38.39 36.39 29.91 26.98 26.97 36.10 41.22 36.63 32.76 31.39 33.51 24.32 19.42 20.23 23.16 33.09 25.62 31.86 39.31 42.43 43.76 44.63 44.36 45.46 45.76
48.65 45.55 47.28 49.36 50.50 46.26 39.70 30.39 31.99 37.81 40.32 38.67 39.38 36.39 36.78 38.92 38.54 37.46 35.96 35.73 38.33 37.74 30.23 28.74 30.52 40.24 40.91 40.56 37.67 33.28 29.59 36.60 29.79 30.57 27.18 27.72 31.41 36.59 41.75 41.51 42.50 42.79 44.06 43.56 44.37
42.19 44.24 46.24 51.94 50.15 43.78 36.00 34.94 37.67 43.75 42.64 41.43 34.31 37.88 33.81 35.14 34.53 33.70 34.33 39.90 38.60 40.42 37.77 34.12 27.84 38.14 39.95 40.58 39.89 35.26 36.87 26.12 27.56 21.34 20.66 25.26 27.69 28.80 35.80 38.01 40.11 40.25 41.05 42.64 44.81
42.84 42.05 48.40 49.52 45.94 40.28 31.83 35.16 40.59 44.27 43.79 40.27 37.24 36.44 35.30 33.57 33.93 32.89 34.76 38.65 41.39 39.64 38.91 34.99 31.97 33.03 36.25 33.49 32.07 30.96 29.86 31.75 31.67 29.70 22.52 20.06 24.43 36.84 37.51 37.98 37.98 39.42 41.68 42.19 43.77
39.98 38.14 48.93 46.20 35.23 35.59 34.60 39.89 42.06 42.37 44.91 41.59 40.70 38.38 35.39 35.76 33.41 33.06 33.46 37.38 42.76 40.70 35.09 36.75 32.29 28.02 32.17 38.67 39.94 36.70 32.80 31.33 22.82 22.94 28.02 24.89 26.43 38.96 38.41 39.08 39.31 40.38 42.02 43.79 45.38
39.02 39.53 47.20 45.04 29.54 31.41 36.43 39.90 41.23 40.40 41.82 39.81 38.23 38.88 38.19 33.87 30.72 36.00 37.38 42.78 42.81 39.34 35.82 36.10 29.99 27.60 29.02 33.50 37.86 34.96 35.88 35.87 33.12 31.69 24.69 25.14 26.39 39.99 40.36 41.02 41.11 40.13 42.53 44.21 45.45
39.19 35.04 38.10 39.54 38.02 34.13 33.82 36.03 36.87 43.63 41.90 40.55 38.86 38.97 36.53 34.41 35.21 33.44 35.05 40.04 41.53 41.67 44.53 41.41 35.48 31.70 26.52 30.71 34.71 31.59 34.03 35.80 33.82 27.63 27.80 29.04 29.95 35.61 38.29 39.72 40.88 41.11 43.65 43.56 45.03
38.18 34.71 35.57 30.47 32.58 33.61 34.44 36.83 36.19 35.64 39.62 38.60 36.17 37.09 34.53 29.55 32.22 32.03 35.25 36.74 40.10 43.42 40.60 38.92 33.69 34.37 34.66 35.72 35.73 34.80 33.98 34.41 32.95 32.21 27.61 30.39 31.08 35.30 37.76 39.33 40.96 43.36 45.80 45.98 45.98
34.55 32.52 34.85 32.76 34.90 34.26 35.71 33.18 35.20 37.09 36.52 35.32 33.99 36.96 35.19 30.98 32.68 31.04 33.75 34.37 33.71 38.08 36.21 40.24 32.68 34.29 31.12 34.80 34.54 32.97 35.38 35.44 35.03 34.66 33.71 33.82 32.42 39.37 40.94 42.54 42.26 43.59 45.48 44.50 45.91
39.81 39.52 37.64 33.22 32.21 31.12 31.92 33.51 34.80 37.17 37.80 39.49 36.45 34.54 34.12 36.27 38.89 38.96 39.56 39.31 37.95 35.55 33.01 34.77 33.66 32.06 26.94 32.86 31.89 28.26 34.90 36.05 35.97 37.19 34.87 30.12 35.03 41.48 40.85 42.82 42.78 43.53 44.49 44.88 44.94
MSLP
1020.84 1020.46 1020.02 1019.63 1019.29 1018.96 1018.61 1018.23 1017.85 1017.45 1017.06 1016.69 1016.39 1016.09 1015.70 1015.21 1014.55 1013.93 1013.43 1011.67 1011.46 1011.01 1011.14 1010.89 1010.50 1010.34 1010.26 1010.18 1009.84 1009.76 1010.12 1009.70 1008.81 1007.95 1005.98 1005.11 1005.00 1004.19 1003.53 1002.90 1002.40 1001.07 999.96 999.84 1000.33
1020.70 1020.28 1019.88 1019.48 1019.13 1018.81 1018.48 1018.08 1017.68 1017.27 1016.92 1016.59 1016.25 1015.91 1015.44 1015.04 1014.56 1013.49 1011.57 1010.85 1010.85 1011.12 1011.28 1011.04 1010.73 1010.54 1010.51 1009.93 1009.70 1009.83 1009.51 1008.79 1008.12 1007.48 1006.56 1005.55 1004.82 1004.29 1003.94 1003.03 1002.60 1002.02 1000.99 999.27 1000.91
1020.62 1020.13 1019.72 1019.36 1018.99 1018.62 1018.26 1017.87 1017.47 1017.06 1016.70 1016.44 1016.16 1015.74 1015.16 1014.91 1014.34 1011.62 1010.61 1010.60 1010.75 1010.88 1010.95 1010.86 1010.80 1010.81 1010.48 1009.88 1009.64 1009.26 1008.57 1008.46 1007.77 1007.30 1006.77 1005.81 1004.48 1004.34 1004.60 1003.34 1003.04 1003.11 1002.36 1002.20 1001.73
1020.53 1020.01 1019.56 1019.14 1018.74 1018.35 1017.96 1017.56 1017.14 1016.76 1016.44 1016.21 1015.96 1015.49 1014.76 1014.70 1013.18 1010.54 1010.07 1010.10 1010.51 1010.95 1010.99 1010.70 1010.68 1010.65 1010.36 1010.17 1009.70 1009.46 1008.72 1008.47 1007.66 1007.15 1006.78 1006.09 1005.02 1004.19 1004.12 1003.19 1002.57 1003.30 1002.99 1002.39 1002.07
1020.41 1019.89 1019.38 1018.89 1018.37 1017.86 1017.44 1017.05 1016.75 1016.48 1016.22 1016.00 1015.69 1015.28 1014.73 1013.99 1011.72 1009.57 1009.67 1009.82 1010.48 1010.73 1010.60 1010.52 1010.64 1010.55 1010.65 1010.37 1009.90 1009.44 1009.09 1008.34 1007.75 1007.05 1006.40 1006.17 1004.87 1003.82 1003.10 1002.67 1002.18 1002.24 1002.78 1002.79 1002.56
1020.27 1019.72 1019.17 1018.63 1018.14 1017.55 1016.95 1016.55 1016.33 1016.14 1015.93 1015.73 1015.49 1015.25 1014.96 1013.07 1009.61 1009.06 1009.47 1010.18 1010.11 1010.26 1009.92 1009.85 1009.99 1010.06 1010.37 1010.47 1010.49 1009.60 1009.21 1008.63 1007.71 1007.02 1006.55 1006.10 1004.83 1004.40 1001.49 1002.28 1002.00 1001.22 1002.12 1002.15 1002.34
1020.12 1019.53 1018.94 1018.34 1017.75 1017.11 1016.51 1016.02 1015.66 1015.49 1015.42 1015.27 1015.11 1015.01 1014.37 1011.55 1009.40 1009.63 1009.94 1009.67 1009.35 1009.37 1009.36 1009.27 1009.46 1009.99 1010.53 1010.66 1010.10 1009.81 1009.39 1008.40 1007.66 1007.05 1006.68 1006.09 1004.71 1003.35 1002.28 1002.12 1001.85 1001.01 1000.98 1001.73 1001.85
1019.98 1019.31 1018.65 1018.00 1017.32 1016.64 1016.00 1015.45 1015.08 1014.93 1014.84 1014.80 1014.68 1014.68 1013.12 1010.00 1009.54 1009.66 1009.33 1009.04 1008.87 1008.74 1008.85 1008.97 1009.22 1009.96 1010.50 1010.75 1010.65 1010.52 1009.98 1009.22 1007.94 1007.36 1006.51 1006.11 1003.77 1003.02 1002.88 1002.79 1002.11 1001.72 1000.25 1001.21 1001.35
1019.69 1019.01 1018.35 1017.65 1016.92 1016.22 1015.51 1014.72 1014.01 1013.99 1014.07 1014.35 1014.57 1014.33 1011.92 1009.59 1009.44 1008.96 1008.74 1008.96 1008.85 1008.71 1008.65 1008.69 1009.29 1010.10 1010.55 1011.14 1011.61 1010.93 1010.58 1009.63 1008.68 1007.22 1006.60 1006.19 1003.79 1003.26 1003.22 1003.00 1002.41 1001.89 1001.36 1000.16 1001.08
1019.39 1018.68 1017.99 1017.31 1016.62 1015.91 1015.04 1013.78 1013.12 1013.36 1013.53 1013.76 1013.64 1013.79 1011.08 1009.62 1008.76 1008.50 1008.37 1008.58 1008.77 1008.91 1008.90 1008.97 1009.66 1010.53 1011.16 1011.79 1011.94 1011.26 1010.68 1009.64 1008.85 1007.63 1006.95 1006.20 1004.81 1004.56 1004.05 1003.68 1003.05 1002.25 1001.46 1000.78 999.95
1019.06 1018.30 1017.55 1016.86 1016.24 1015.70 1014.97 1013.75 1013.37 1013.30 1012.98 1012.61 1012.15 1011.48 1010.02 1009.14 1008.38 1008.35 1008.24 1008.41 1008.73 1009.23 1009.72 1009.57 1010.42 1010.94 1010.86 1010.90 1010.74 1010.49 1010.08 1009.30 1008.55 1007.50 1007.01 1006.52 1005.41 1004.83 1004.49 1004.08 1003.56 1002.88 1002.27 1001.43 1000.50
1018.83 1018.00 1017.12 1016.28 1015.61 1015.33 1015.38 1014.56 1012.82 1012.36 1012.01 1011.10 1010.63 1010.35 1009.67 1008.99 1008.68 1008.22 1008.08 1008.71 1009.10 1009.74 1010.03 1010.53 1010.59 1010.26 1010.19 1010.08 1010.11 1009.97 1009.77 1009.25 1008.11 1007.48 1007.08 1006.76 1005.30 1004.64 1004.53 1004.25 1003.78 1003.24 1002.60 1001.97 1001.00
1018.60 1017.80 1016.87 1015.89 1015.07 1014.73 1014.59 1013.29 1012.05 1011.82 1012.29 1010.34 1009.41 1008.98 1008.69 1008.52 1008.37 1008.10 1008.25 1008.53 1009.13 1009.80 1010.25 1010.71 1010.23 1009.72 1009.70 1009.73 1009.88 1009.96 1010.04 1009.77 1009.14 1007.77 1007.20 1007.05 1005.40 1004.54 1004.04 1004.10 1003.75 1003.21 1002.67 1001.91 1001.33
1018.25 1017.48 1016.81 1015.71 1014.96 1014.90 1013.76 1012.53 1011.92 1011.73 1012.14 1010.04 1008.59 1007.75 1007.76 1007.98 1008.10 1007.54 1007.85 1008.48 1009.03 1009.44 1009.97 1010.26 1009.46 1009.51 1009.56 1009.81 1009.92 1010.02 1009.93 1009.89 1009.55 1009.15 1008.70 1007.93 1006.09 1005.04 1004.43 1003.60 1003.77 1003.17 1002.66 1002.00 1001.27
1017.76 1017.00 1016.48 1016.34 1015.50 1014.72 1013.10 1012.28 1011.84 1012.13 1011.28 1009.12 1008.16 1007.18 1007.50 1008.09 1007.75 1007.24 1007.27 1008.04 1008.72 1008.97 1009.90 1009.79 1009.45 1009.34 1009.51 1009.83 1009.92 1010.12 1010.10 1010.32 1010.16 1009.75 1009.25 1008.23 1007.91 1004.58 1004.85 1004.21 1003.47 1003.15 1002.60 1001.89 1001.23
1017.02 1016.38 1016.05 1015.63 1015.59 1013.80 1012.76 1012.25 1012.08 1012.57 1010.51 1008.89 1008.47 1008.22 1008.37 1008.23 1007.94 1007.36 1007.35 1007.73 1007.92 1008.81 1009.24 1009.40 1008.86 1008.95 1009.37 1009.51 1009.69 1010.18 1010.69 1010.64 1010.27 1010.16 1009.63 1008.47 1008.38 1004.93 1005.13 1004.26 1003.61 1003.04 1002.77 1002.00 1001.36
1016.23 1015.32 1015.29 1015.00 1014.13 1012.94 1012.62 1012.55 1012.81 1012.04 1010.16 1009.80 1009.45 1009.03 1008.85 1008.79 1008.29 1008.04 1007.97 1008.51 1008.91 1009.29 1009.67 1009.68 1009.25 1009.22 1009.34 1009.69 1009.94 1010.37 1011.25 1011.85 1011.29 1010.86 1009.44 1008.54 1007.71 1005.05 1004.80 1004.34 1004.71 1004.52 1003.78 1003.20 1002.46
1015.73 1014.72 1014.55 1014.06 1013.38 1013.33 1013.36 1013.34 1013.08 1012.40 1011.23 1010.50 1010.30 1009.81 1009.75 1009.62 1009.43 1009.31 1009.22 1009.54 1009.52 1009.93 1010.39 1010.48 1010.19 1009.75 1009.63 1009.73 1010.07 1010.66 1011.44 1012.60 1012.37 1011.69 1010.85 1009.38 1007.32 1004.99 1004.82 1004.93 1004.76 1004.36 1003.96 1003.14 1002.48
1015.51 1014.63 1014.26 1013.22 1012.94 1013.52 1014.34 1014.14 1013.38 1012.04 1011.19 1010.69 1010.46 1010.43 1010.55 1010.90 1010.90 1010.79 1010.63 1010.48 1010.59 1011.00 1011.69 1011.53 1010.76 1010.02 1009.60 1009.43 1009.92 1010.21 1011.10 1011.02 1012.09 1012.05 1011.67 1009.46 1007.04 1005.31 1005.00 1005.19 1004.46 1004.28 1003.40 1002.86 1002.20
1016.68 1015.68 1014.15 1012.50 1012.80 1013.87 1014.87 1014.53 1013.22 1012.11 1010.90 1010.83 1011.05 1011.37 1011.58 1011.60 1011.87 1012.00 1011.59 1010.87 1011.10 1011.49 1011.64 1012.25 1011.24 1010.12 1009.40 1009.30 1009.08 1009.56 1009.97 1011.17 1012.23 1012.51 1011.37 1009.03 1007.66 1006.46 1005.69 1005.53 1004.74 1003.91 1003.17 1002.27 1001.57
1016.84 1015.81 1013.44 1012.76 1013.25 1014.72 1015.49 1014.68 1013.31 1012.07 1011.37 1011.04 1011.16 1011.60 1012.23 1012.59 1012.55 1012.36 1011.94 1011.49 1011.36 1011.65 1011.77 1012.38 1012.33 1010.84 1010.39 1009.45 1008.92 1009.40 1009.99 1010.81 1011.72 1012.41 1011.46 1009.80 1007.36 1006.05 1005.87 1005.63 1004.75 1003.58 1002.90 1002.40 1001.33
1017.75 1016.46 1013.52 1013.29 1014.71 1015.65 1015.61 1014.59 1013.58 1012.55 1011.68 1011.21 1011.46 1012.02 1012.57 1012.87 1012.85 1012.63 1012.02 1011.72 1011.55 1011.83 1012.12 1012.56 1012.64 1011.71 1010.25 1008.87 1008.47 1009.11 1009.72 1010.37 1011.33 1011.54 1010.80 1009.69 1006.66 1005.67 1005.27 1004.65 1004.21 1002.90 1002.08 1001.47 1000.55
1019.13 1017.31 1014.25 1014.21 1015.81 1016.50 1015.73 1014.77 1013.88 1013.03 1012.49 1012.43 1012.43 1012.54 1012.82 1013.21 1013.37 1012.77 1012.07 1011.63 1011.60 1011.99 1012.32 1012.93 1012.96 1012.10 1009.88 1008.94 1008.62 1008.92 1009.53 1010.17 1010.81 1010.97 1010.04 1009.27 1006.28 1005.27 1005.00 1004.18 1002.94 1002.50 1001.78 1000.54 999.64
1019.41 1018.33 1016.89 1016.47 1016.88 1017.19 1016.90 1015.50 1014.35 1013.30 1013.07 1013.19 1013.30 1013.20 1013.57 1013.77 1013.68 1013.30 1012.65 1011.95 1011.83 1011.83 1012.23 1013.18 1013.12 1012.67 1011.23 1009.62 1009.18 1009.22 1009.08 1009.24 1009.78 1009.62 1008.99 1007.36 1005.98 1004.74 1004.00 1003.36 1002.19 1001.73 1000.71 999.57 998.41
1019.87 1020.31 1019.85 1019.01 1018.26 1018.20 1017.51 1016.28 1015.11 1014.24 1013.70 1013.67 1013.80 1014.12 1014.40 1014.37 1014.03 1013.32 1012.55 1012.31 1011.83 1011.65 1012.37 1013.12 1012.82 1012.40 1011.18 1010.03 1009.29 1008.56 1008.15 1007.91 1007.99 1008.02 1007.57 1005.92 1005.10 1003.71 1002.63 1001.87 1000.93 1000.72 1000.30 998.36 996.90
1020.97 1021.17 1020.56 1020.11 1019.34 1018.67 1017.65 1016.87 1016.22 1015.31 1014.95 1014.20 1014.15 1014.14 1014.17 1014.30 1013.96 1013.17 1013.06 1012.70 1012.41 1011.97 1012.54 1013.17 1012.94 1012.34 1010.93 1009.46 1008.56 1007.84 1007.16 1006.62 1006.34 1006.03 1005.72 1005.17 1003.71 1002.56 1001.73 1000.43 999.95 1000.01 999.54 997.74 995.85
1021.45 1021.23 1021.30 1020.52 1019.86 1019.21 1018.29 1017.81 1016.93 1016.22 1014.89 1014.24 1014.12 1013.98 1013.71 1013.42 1013.14 1012.33 1011.82 1011.53 1011.47 1011.74 1012.56 1013.24 1013.16 1012.70 1010.83 1009.33 1008.35 1007.26 1006.41 1005.65 1005.39 1004.35 1004.70 1004.62 1003.38 1002.82 1002.16 1001.10 1000.30 999.81 999.06 997.40 997.04
Wind_Speed
17 17 17 17 17 16 17 16 17 17 17 17 17 17 17 18 18 4 5 10 7 5 5 6 5 5 2 4 4 1 2 8 9 11 14 12 7 9 10 7 10 13 3 3 7
18 18 18 18 17 17 17 17 17 17 17 17 16 17 17 16 6 5 12 10 10 4 2 2 3 5 2 5 4 5 5 8 6 8 14 18 18 18 13 16 7 18 14 16 13
18 19 19 19 19 18 18 18 17 17 17 17 16 17 17 12 3 4 10 13 10 6 3 2 3 3 3 4 5 5 14 10 8 7 9 16 23 15 12 15 11 8 17 7 1
20 20 20 20 20 19 19 19 18 18 17 17 16 17 18 2 1 4 13 14 9 5 3 2 1 1 1 4 4 6 7 8 9 14 15 21 21 24 17 19 16 5 9 6 5
21 21 21 21 22 21 20 20 19 18 17 16 16 15 7 2 8 8 15 12 4 4 4 4 3 2 3 4 5 6 9 8 10 12 17 17 24 25 24 19 16 13 7 7 11
21 22 23 23 22 22 21 20 18 17 16 14 13 11 0 4 5 8 10 2 7 5 5 5 0 3 2 2 1 5 6 8 7 9 6 13 21 19 31 16 17 20 4 5 5
21 21 23 23 24 23 21 20 18 18 16 13 11 4 3 13 3 5 6 6 3 4 1 3 2 4 3 9 4 7 8 10 6 4 5 5 15 21 20 11 15 21 14 6 8
21 21 22 25 25 24 24 20 19 18 15 11 5 2 8 7 2 7 3 5 5 3 2 7 6 3 3 2 8 6 4 4 4 7 6 8 25 21 14 9 16 13 21 8 9
22 22 23 25 26 25 24 23 23 17 11 7 1 2 10 9 3 6 5 3 5 5 6 8 7 5 1 2 5 4 5 7 7 7 6 6 16 10 7 10 17 16 15 18 8
23 23 23 24 25 24 24 22 14 6 4 6 5 2 6 2 4 3 2 4 5 5 6 1 4 3 3 4 4 6 5 6 4 6 2 10 15 7 7 8 10 14 15 17 16
24 24 24 24 24 21 13 6 6 4 2 6 6 5 10 7 1 3 3 2 3 5 3 3 4 5 11 9 11 9 12 14 10 7 2 9 14 12 6 7 9 10 13 15 17
26 26 26 26 24 19 1 2 3 6 8 9 13 14 17 10 4 5 1 2 2 3 6 8 4 5 6 6 5 6 6 6 4 6 8 7 17 15 6 7 9 11 12 13 13
25 25 26 27 30 2 3 6 4 5 3 9 6 6 8 7 7 9 6 4 4 2 4 2 10 9 10 7 9 8 6 12 15 12 4 5 15 17 10 5 7 10 10 10 12
24 24 24 27 3 4 4 7 3 5 4 6 5 5 5 4 4 7 8 7 2 7 3 7 7 5 7 3 4 5 9 11 13 8 4 3 17 15 11 12 6 11 10 10 13
25 25 23 17 4 2 5 10 2 6 3 6 5 3 3 5 1 4 7 4 8 7 7 11 7 8 4 1 2 6 7 7 7 10 4 12 6 14 6 13 18 14 11 11 10
26 26 22 1 1 8 9 8 4 3 3 2 3 4 2 4 7 6 5 2 4 5 4 10 6 2 5 4 2 4 4 9 5 3 10 12 7 16 8 8 13 11 10 14 12
30 27 13 3 5 4 6 3 4 4 15 5 7 6 7 5 6 7 3 1 4 3 4 4 3 2 3 1 4 4 5 6 5 1 11 7 9 19 5 10 6 5 10 13 15
32 22 3 4 5 6 4 5 6 6 11 9 8 9 2 12 5 10 7 7 6 6 1 1 6 2 2 6 6 5 6 5 5 3 8 9 8 9 1 4 4 4 7 8 14
23 5 2 5 5 3 6 5 4 5 6 6 7 3 5 8 5 9 6 1 4 5 2 4 4 8 8 5 3 4 5 9 7 11 7 5 8 9 4 4 7 10 10 12 10
3 4 4 4 2 6 6 2 4 10 8 5 2 5 7 8 3 5 4 3 4 3 3 3 8 8 6 6 9 9 4 2 1 4 5 6 7 8 7 9 13 14 14 16 13
3 4 5 4 5 6 3 4 4 14 9 1 4 3 2 2 3 5 5 8 2 2 4 1 3 6 5 6 12 5 3 2 4 6 4 5 7 5 6 9 10 14 15 14 15
4 3 4 5 5 1 0 3 6 12 9 4 3 2 1 3 4 3 5 3 4 2 2 3 3 6 15 20 16 12 9 6 5 5 5 3 11 3 9 11 7 14 16 16 16
4 4 4 6 3 4 6 6 3 5 7 7 5 2 2 3 4 3 4 6 4 5 3 1 3 7 7 2 3 3 2 3 1 2 7 4 7 5 11 10 10 9 16 17 14
2 4 6 5 1 2 5 5 6 5 2 6 4 6 5 4 1 6 7 4 8 4 5 5 5 11 13 17 8 11 16 15 12 7 3 10 16 19 19 12 14 9 18 12 12
4 1 1 5 4 6 2 3 6 5 3 4 4 3 2 3 7 8 4 13 4 6 7 6 6 11 17 23 22 22 20 20 18 15 13 14 21 20 17 15 17 11 15 19 17
3 3 4 3 6 5 4 3 5 5 6 6 3 8 7 6 9 19 14 7 7 6 4 4 5 8 16 19 16 19 19 20 19 20 17 20 24 18 18 21 14 11 9 20 19
3 3 1 4 5 3 1 4 8 12 9 4 7 6 6 9 10 13 13 15 14 11 6 6 2 3 7 11 15 6 6 5 9 12 8 12 15 5 13 15 9 14 13 18 20
Wind_Direction
346 342 339 337 335 331 329 328 326 325 324 325 327 329 327 323 320 325 239 220 191 256 329 286 289 262 280 230 213 283 179 226 225 241 259 304 316 302 292 325 330 311 124 133 121
342 341 338 336 333 330 326 324 323 323 322 323 326 327 324 325 311 247 249 213 218 234 248 298 302 348 216 221 217 184 198 223 227 242 286 302 296 300 327 332 356 340 343 112 151
341 339 337 335 332 328 324 321 320 320 320 322 325 325 319 324 309 253 216 216 215 207 236 294 279 247 230 224 225 221 240 245 267 274 272 290 294 305 313 299 299 339 336 328 125
341 338 336 333 329 326 322 320 318 320 320 322 323 324 317 137 181 232 205 217 211 193 260 311 311 291 260 247 243 259 267 258 267 263 268 274 287 284 284 269 282 264 274 282 191
341 339 337 334 330 326 322 319 317 317 317 318 321 323 347 315 248 232 203 226 190 196 228 184 251 199 197 246 314 256 273 271 262 257 253 261 266 271 279 277 283 282 256 226 212
339 337 335 333 330 324 321 316 312 310 309 312 315 316 247 286 250 195 195 185 237 199 253 189 305 283 240 298 325 293 298 289 270 268 272 265 268 275 270 282 284 284 211 247 162
338 334 333 330 328 323 319 314 308 305 304 306 308 278 258 239 226 6 143 217 226 228 198 232 188 76 14 331 322 305 310 312 277 250 265 332 284 255 271 312 273 276 272 233 232
337 333 330 328 327 323 319 311 299 292 291 292 299 263 250 254 328 296 196 339 325 316 300 267 194 169 170 263 335 324 306 323 317 4 285 165 264 263 281 293 289 289 291 243 220
334 329 327 330 327 324 320 307 295 288 259 238 154 185 268 292 171 218 177 219 264 280 275 264 115 173 289 65 360 319 261 270 315 238 228 173 267 284 289 265 268 270 277 290 241
333 329 327 329 328 325 321 300 288 311 174 179 250 328 282 340 188 212 218 204 254 298 309 225 83 98 358 92 231 249 267 264 288 298 61 288 281 299 310 322 285 286 281 275 283
335 330 328 326 327 327 337 353 11 12 102 216 221 258 303 299 213 330 289 236 1 31 2 307 87 209 241 229 237 253 261 270 271 243 278 275 285 288 288 307 307 308 305 286 276
333 332 329 326 325 322 247 324 239 207 305 249 239 251 260 273 266 270 258 127 3 300 338 10 291 271 284 307 299 295 270 285 283 291 289 265 277 278 263 265 263 272 284 286 277
331 330 329 326 322 46 197 237 318 84 348 299 215 220 226 181 225 246 152 180 223 299 319 220 259 295 316 317 10 353 0 342 316 292 270 289 283 292 280 248 287 285 270 279 268
330 327 330 332 352 346 266 303 223 91 57 274 159 228 149 160 275 224 189 167 232 225 236 254 257 274 300 314 15 331 332 329 331 343 296 287 283 277 294 295 258 278 281 277 287
327 325 328 321 263 318 282 326 315 61 67 178 162 193 210 176 298 240 180 150 214 224 120 249 265 270 282 180 295 272 313 318 289 287 320 282 263 283 307 292 299 277 266 275 273
324 324 328 280 214 243 300 299 58 39 18 124 67 11 11 242 254 260 173 173 219 203 205 235 251 157 161 216 194 327 349 306 264 212 265 271 213 274 243 262 272 293 307 298 306
326 322 316 228 228 309 324 37 58 41 329 30 16 339 328 317 331 14 351 184 244 0 346 336 310 123 136 296 341 79 57 326 319 298 255 202 233 254 260 276 27 356 333 328 330
327 321 180 222 269 354 34 54 74 339 27 22 360 318 5 20 19 348 8 354 45 56 328 62 332 10 184 204 218 214 166 177 280 318 306 308 250 244 314 89 340 316 297 322 322
327 335 334 262 242 85 63 61 191 350 343 352 337 303 8 35 353 7 341 20 68 40 37 329 263 324 262 243 193 235 173 202 199 250 255 240 284 307 28 326 324 302 323 312 304
333 338 279 263 114 60 67 297 321 333 308 47 46 351 341 344 51 19 300 342 10 82 154 317 286 224 247 329 283 185 217 267 18 270 242 253 263 246 313 315 309 318 318 305 303
14 30 263 72 62 50 116 244 314 323 334 229 263 256 342 3 325 316 253 316 59 12 82 110 205 275 318 217 257 268 196 165 127 174 231 284 249 202 246 257 277 293 304 292 285
353 43 286 53 46 41 180 326 314 347 346 316 80 55 88 301 275 269 234 255 100 160 295 165 240 276 274 277 273 257 265 174 146 232 238 218 263 210 222 240 263 292 299 282 278
340 273 324 80 76 337 308 325 328 328 4 22 322 116 281 270 302 245 289 309 176 193 200 153 253 294 292 300 45 87 186 133 127 148 215 222 267 225 255 268 275 284 283 281 284
11 8 330 30 77 49 357 285 328 299 57 22 345 4 18 337 359 291 293 274 324 254 170 151 236 244 267 277 281 274 272 271 235 217 227 238 287 279 272 263 269 269 270 270 285
25 6 104 314 327 326 268 281 306 349 29 40 333 326 72 291 301 254 290 311 299 241 148 138 263 260 271 272 275 278 271 272 258 242 238 265 256 263 274 261 256 249 330 312 298
74 24 346 296 296 316 353 339 314 340 339 303 219 286 271 243 230 280 278 278 241 241 144 156 263 291 287 279 272 274 266 262 258 255 248 252 264 272 281 274 250 236 229 280 295
324 338 41 283 317 329 207 -0 311 310 291 301 292 290 272 271 294 266 252 257 243 252 172 166 229 278 276 306 310 285 319 322 313 250 245 253 266 337 336 342 315 287 257 270 287